STARLINK-3757, 52539

Orbit data source: Space-Track

STARLINK-3757, 52539 is a payload satellite owned by SpaceX/Seattle (US) in LEO that was launched on Fri, 13 May 2022 UTC via an FALCON 9 launch vehicle from the Air Force Western Test Range (AFWTR). Payload-class satellites include a variety of spacecraft equipped with specific instruments for various scientific and technological missions. These include communications satellites like Starlink; space stations such as the ISS; scientific satellites like the Hubble; Earth observation satellites from companies like Planet Labs, Umbra, and HawkEye 360; GPS; miniature CubeSats for education and research; and military/defense satellites.

Loading next visibility...
Identifier
52539, 2022-051G
Orbit
LEO
Country
Flag of USUS
Related business
Manufacturer
SpaceX/Seattle
Mission
Operational Commercial Communications
Bus & Motor
STARLINK, Unknown motor
Mass
297 kg wet, ~275 kg dry
Launch date (UTC)
2022-05-13 (4 years ago)
Launch vehicle
FALCON 9
Launch site
Air Force Western Test Range (AFWTR)
Object type
Payload
Rocket body
Debris
Shape & HBR
Box + 1 Pan, 10.1 m
Radar Cross Section
13.562 m², Large (>1 m²)

Expand to show TLE details & history
Last TLE update: 3 days ago

TLE from 3 days ago
0 STARLINK-3757
1 52539U 22051G   26170.90747639  .00000594  00000-0  55427-4 0  9990
2 52539  53.1606  30.1339 0001293  84.8649 275.2490 15.08830501226875
Epoch: 2026-06-19T21:46Z
TLE epoch observation values (Epoch: 2026-06-19T21:46:45.960Z)
Latitude
Longitude
155.31268°
Altitude
540.582 km
Speed
7.593 km/s
True Right ascension
02h 00m 32s
True Declination
0° 00' 00"
Sunlit
Object was in daylight at epoch
Visualization orbit readout
Latitude
Unknown
Longitude
Unknown
Altitude
Unknown
Speed
Unknown
Apparent Right ascension
Unknown
Apparent Declination
Unknown
Sunlit
N/A
Visualization observer readout
Local Sidereal Time
21:34:41
Azimuth
Unknown
Elevation
Unknown
Doppler factor
Unknown
Orbital elements
Apogee altitude
540.921 km
Perigee altitude
539.132 km
Semi-major axis
6,918.163 km
Eccentricity
0.00013
Inclination
53.1606°
RAAN
30.1339°
Arg. of periapsis
84.8649°
True anomaly
275.23425°
Mean anomaly
275.249°
Eccentric anomaly
275.24162°
Mean motion
3.77187 °/min
Orbital period
95.44 mins
BSTAR
0.000055427
Loading maneuver chart data...
Computing Atmospheric mass density...
Loading historical data...
Loading historical data...
Loading historical data...
Loading historical data...
Loading historical data...
Loading historical data...
Loading historical data...

Documentation

Showing up to 5 results
|